Location: Borgo
(42.3939°N, 9.2791°E)
Time: 21:10:13
(UTC+00:00)

Cosmos 2058 Rocket - Pass Details

Date: 24 January 2021
Orbit: 611 x 639 km, 82.5° (Epoch: 03 March)

Event Time Altitude Azimuth Distance (km) Brightness Sun altitude
Rises 17:01:23 0° 353° (N) 2,946 6.4 -6.7°
Reaches altitude 10° 17:03:38 10° 356° (N) 2,035 5.6 -7.1°
Maximum altitude 17:08:09 73° 81° (E) 673 3.1 -7.9°
Drops below altitude 10° 17:12:38 10° 166° (SSE) 2,022 5.8 -8.7°
Sets 17:14:53 0° 169° (SSE) 2,925 6.6 -9.1°
